| time (UTC) | temp C | wind direction | speed KPH | gust KPH | rain 1hr cm | rain 24hr cm | rain mn cm | humidity % | barometer mb |
| 20260507190055 | 17 | 115 | 1.6 | 4.8 | 0.00 | 0.23 | 0.00 | 35 | 1005.1 |
| 20260507184549 | 17 | 64 | 1.6 | 8.0 | 0.00 | 0.38 | 0.00 | 34 | 1005.3 |
| 20260507183055 | 17 | 105 | 1.6 | 11.3 | 0.00 | 0.38 | 0.00 | 34 | 1005.5 |
| 20260507181556 | 17 | 150 | 3.2 | 9.7 | 0.00 | 0.38 | 0.00 | 34 | 1005.4 |
| 20260507180054 | 17 | 0 | 1.6 | 9.7 | 0.00 | 0.38 | 0.00 | 40 | 1005.5 |
| 20260507174559 | 17 | 0 | 1.6 | 8.0 | 0.00 | 0.43 | 0.00 | 38 | 1005.5 |
| 20260507173058 | 16 | 118 | 1.6 | 8.0 | 0.00 | 0.43 | 0.00 | 40 | 1005.4 |
| 20260507171601 | 17 | 94 | 1.6 | 9.7 | 0.00 | 0.43 | 0.00 | 39 | 1005.5 |
| 20260507170055 | 16 | 186 | 1.6 | 6.4 | 0.00 | 0.43 | 0.00 | 39 | 1005.8 |
| 20260507164552 | 16 | 111 | 1.6 | 8.0 | 0.00 | 0.43 | 0.00 | 37 | 1006.1 |
| 20260507163051 | 16 | 221 | 1.6 | 9.7 | 0.00 | 0.43 | 0.00 | 45 | 1006.0 |
| 20260507161602 | 16 | 129 | 1.6 | 6.4 | 0.00 | 0.43 | 0.00 | 43 | 1006.1 |
| 20260507160054 | 16 | 0 | 0.0 | 3.2 | 0.00 | 0.43 | 0.00 | 44 | 1006.4 |
| 20260507154554 | 15 | 123 | 1.6 | 6.4 | 0.00 | 0.43 | 0.00 | 44 | 1006.2 |
| 20260507153109 | 14 | 151 | 1.6 | 8.0 | 0.00 | 0.43 | 0.00 | 52 | 1006.5 |
| 20260507151558 | 15 | 118 | 0.0 | 6.4 | 0.00 | 0.43 | 0.00 | 53 | 1006.7 |
| 20260507150058 | 14 | 0 | 0.0 | 6.4 | 0.00 | 0.43 | 0.00 | 61 | 1006.7 |
| 20260507144553 | 13 | 101 | 0.0 | 4.8 | 0.00 | 0.43 | 0.00 | 63 | 1006.6 |
| 20260507143055 | 12 | 111 | 0.0 | 3.2 | 0.00 | 0.43 | 0.00 | 66 | 1006.7 |
| 20260507141552 | 12 | 113 | 0.0 | 6.4 | 0.00 | 0.43 | 0.00 | 65 | 1006.5 |
| 20260507140053 | 11 | 122 | 0.0 | 4.8 | 0.00 | 0.43 | 0.00 | 72 | 1006.7 |
| 20260507134558 | 12 | 0 | 0.0 | 3.2 | 0.00 | 0.43 | 0.00 | 69 | 1006.6 |
| 20260507133053 | 12 | 118 | 0.0 | 9.7 | 0.00 | 0.43 | 0.00 | 71 | 1006.8 |
| 20260507131551 | 12 | 0 | 0.0 | 6.4 | 0.00 | 0.43 | 0.00 | 68 | 1006.8 |
| 20260507130105 | 11 | 113 | 0.0 | 3.2 | 0.00 | 0.43 | 0.00 | 69 | 1006.9 |
| 20260507124610 | 10 | 0 | 0.0 | 4.8 | 0.00 | 0.43 | 0.00 | 74 | 1006.8 |
| 20260507123105 | 10 | 0 | 0.0 | 4.8 | 0.00 | 0.43 | 0.00 | 77 | 1006.6 |
| 20260507121601 | 9 | 112 | 0.0 | 3.2 | 0.00 | 0.43 | 0.00 | 81 | 1006.8 |
| 20260507120055 | 8 | 0 | 0.0 | 1.6 | 0.00 | 0.43 | 0.00 | 82 | 1006.9 |
| 20260507114554 | 8 | 105 | 0.0 | 4.8 | 0.00 | 0.43 | 0.00 | 84 | 1006.9 |
| 20260507113052 | 8 | 0 | 0.0 | 3.2 | 0.00 | 0.43 | 0.00 | 87 | 1006.5 |
| 20260507111549 | 7 | 0 | 0.0 | 0.0 | 0.00 | 0.43 | 0.00 | 89 | 1006.7 |
| 20260507110054 | 7 | 0 | 0.0 | 0.0 | 0.00 | 0.43 | 0.00 | 89 | 1006.6 |
| 20260507104555 | 7 | 0 | 0.0 | 1.6 | 0.00 | 0.43 | 0.00 | 89 | 1006.3 |
| 20260507103057 | 7 | 173 | 0.0 | 3.2 | 0.00 | 0.43 | 0.00 | 88 | 1006.3 |
| 20260507101601 | 7 | 0 | 0.0 | 1.6 | 0.00 | 0.43 | 0.00 | 89 | 1006.1 |
| 20260507100106 | 7 | 0 | 0.0 | 1.6 | 0.00 | 0.43 | 0.00 | 89 | 1005.9 |
| 20260507094556 | 7 | 0 | 0.0 | 1.6 | 0.00 | 0.43 | 0.00 | 89 | 1006.4 |
| 20260507093057 | 7 | 0 | 0.0 | 3.2 | 0.00 | 0.43 | 0.00 | 88 | 1006.3 |
| 20260507091553 | 7 | 149 | 0.0 | 3.2 | 0.00 | 0.43 | 0.00 | 88 | 1006.4 |
| 20260507090055 | 7 | 0 | 0.0 | 1.6 | 0.00 | 0.43 | 0.00 | 89 | 1006.6 |
| 20260507084559 | 8 | 0 | 0.0 | 1.6 | 0.00 | 0.43 | 0.00 | 90 | 1006.6 |
| 20260507083109 | 8 | 0 | 0.0 | 1.6 | 0.00 | 0.43 | 0.00 | 91 | 1006.2 |
| 20260507081600 | 8 | 0 | 0.0 | 1.6 | 0.00 | 0.43 | 0.00 | 91 | 1006.1 |
| 20260507080100 | 8 | 0 | 0.0 | 1.6 | 0.00 | 0.43 | 0.00 | 91 | 1005.9 |
| 20260507074606 | 8 | 0 | 0.0 | 0.0 | 0.00 | 0.43 | 0.00 | 92 | 1006.3 |
| 20260507073102 | 8 | 0 | 0.0 | 1.6 | 0.00 | 0.43 | 0.00 | 91 | 1006.0 |
| 20260507071553 | 8 | 0 | 0.0 | 3.2 | 0.00 | 0.43 | 0.00 | 91 | 1005.8 |
| 20260507070106 | 8 | 0 | 0.0 | 1.6 | 0.00 | 0.43 | 0.00 | 91 | 1005.8 |
| 20260507064553 | 8 | 0 | 0.0 | 3.2 | 0.00 | 0.43 | 0.00 | 91 | 1005.7 |
| 20260507063051 | 8 | 0 | 0.0 | 1.6 | 0.00 | 0.43 | 0.00 | 91 | 1005.9 |
| 20260507061556 | 8 | 129 | 0.0 | 1.6 | 0.00 | 0.43 | 0.00 | 92 | 1005.6 |
| 20260507060052 | 8 | 0 | 0.0 | 1.6 | 0.00 | 0.43 | 0.00 | 92 | 1005.8 |
| 20260507054551 | 9 | 0 | 0.0 | 0.0 | 0.00 | 0.43 | 0.00 | 92 | 1006.3 |
| 20260507053051 | 9 | 0 | 0.0 | 0.0 | 0.00 | 0.43 | 0.00 | 92 | 1006.0 |
| 20260507051553 | 9 | 0 | 0.0 | 0.0 | 0.00 | 0.43 | 0.00 | 92 | 1006.4 |
| 20260507050057 | 9 | 0 | 0.0 | 1.6 | 0.00 | 0.43 | 0.00 | 91 | 1006.2 |
| 20260507044555 | 9 | 0 | 0.0 | 3.2 | 0.00 | 0.43 | 0.00 | 91 | 1005.9 |
| 20260507043051 | 9 | 0 | 0.0 | 3.2 | 0.00 | 0.43 | 0.00 | 91 | 1006.0 |
| 20260507041553 | 10 | 109 | 0.0 | 3.2 | 0.00 | 0.43 | 0.00 | 91 | 1006.2 |
| 20260507040058 | 10 | 127 | 0.0 | 1.6 | 0.00 | 0.43 | 0.00 | 91 | 1006.0 |
| 20260507034553 | 11 | 0 | 0.0 | 3.2 | 0.05 | 0.43 | 0.43 | 92 | 1005.8 |
| 20260507033054 | 11 | 0 | 0.0 | 1.6 | 0.05 | 0.43 | 0.43 | 92 | 1005.6 |
| 20260507031556 | 12 | 102 | 0.0 | 1.6 | 0.05 | 0.43 | 0.43 | 92 | 1005.4 |
| 20260507030055 | 12 | 0 | 0.0 | 4.8 | 0.05 | 0.43 | 0.43 | 92 | 1005.1 |
| 20260507024606 | 13 | 135 | 1.6 | 6.4 | 0.00 | 0.38 | 0.38 | 92 | 1005.5 |
| 20260507023051 | 13 | 84 | 0.0 | 3.2 | 0.00 | 0.38 | 0.38 | 93 | 1005.0 |
| 20260507021556 | 13 | 0 | 0.0 | 3.2 | 0.00 | 0.38 | 0.38 | 93 | 1004.7 |
| 20260507020108 | 14 | 0 | 0.0 | 0.0 | 0.00 | 0.38 | 0.38 | 94 | 1004.6 |
| 20260507014603 | 14 | 0 | 0.0 | 0.0 | 0.00 | 0.38 | 0.38 | 94 | 1004.5 |
| 20260507013055 | 14 | 0 | 0.0 | 0.0 | 0.00 | 0.38 | 0.38 | 94 | 1004.4 |
| 20260507011555 | 14 | 0 | 0.0 | 0.0 | 0.00 | 0.38 | 0.38 | 93 | 1004.4 |
| 20260507010049 | 14 | 0 | 0.0 | 0.0 | 0.00 | 0.38 | 0.38 | 93 | 1004.4 |
| 20260507004552 | 14 | 0 | 0.0 | 0.0 | 0.00 | 0.38 | 0.38 | 93 | 1004.4 |
| 20260507003055 | 14 | 0 | 0.0 | 1.6 | 0.00 | 0.38 | 0.38 | 93 | 1004.1 |
| 20260507001548 | 14 | 0 | 0.0 | 3.2 | 0.00 | 0.38 | 0.38 | 93 | 1004.1 |
| 20260507000054 | 14 | 0 | 0.0 | 1.6 | 0.00 | 0.38 | 0.38 | 93 | 1004.0 |
| 20260506234602 | 14 | 0 | 0.0 | 1.6 | 0.00 | 0.38 | 0.38 | 93 | 1003.9 |
| 20260506233059 | 14 | 0 | 0.0 | 1.6 | 0.00 | 0.38 | 0.38 | 93 | 1003.9 |
| 20260506231558 | 14 | 0 | 0.0 | 3.2 | 0.00 | 0.38 | 0.38 | 93 | 1003.9 |
| 20260506230100 | 14 | 0 | 0.0 | 3.2 | 0.00 | 0.38 | 0.38 | 93 | 1003.9 |
| 20260506224551 | 14 | 0 | 0.0 | 1.6 | 0.00 | 0.38 | 0.38 | 93 | 1004.0 |
| 20260506223058 | 15 | 0 | 0.0 | 1.6 | 0.03 | 0.38 | 0.38 | 93 | 1004.0 |
| 20260506221553 | 15 | 0 | 0.0 | 1.6 | 0.03 | 0.38 | 0.38 | 93 | 1004.1 |
| 20260506220056 | 15 | 0 | 0.0 | 1.6 | 0.05 | 0.38 | 0.38 | 93 | 1004.2 |
| 20260506214551 | 15 | 0 | 0.0 | 1.6 | 0.08 | 0.38 | 0.38 | 92 | 1004.2 |
| 20260506213103 | 15 | 0 | 0.0 | 9.7 | 0.08 | 0.36 | 0.36 | 92 | 1004.2 |
| 20260506211604 | 15 | 28 | 0.0 | 6.4 | 0.08 | 0.36 | 0.36 | 92 | 1004.2 |
| 20260506210055 | 15 | 0 | 0.0 | 3.2 | 0.08 | 0.33 | 0.33 | 92 | 1004.3 |
| 20260506204559 | 15 | 0 | 0.0 | 1.6 | 0.08 | 0.30 | 0.30 | 92 | 1004.6 |
| 20260506203053 | 15 | 91 | 0.0 | 4.8 | 0.05 | 0.28 | 0.28 | 92 | 1004.6 |
| 20260506201600 | 16 | 39 | 0.0 | 1.6 | 0.08 | 0.28 | 0.28 | 92 | 1004.7 |
| 20260506200050 | 16 | 230 | 0.0 | 3.2 | 0.05 | 0.25 | 0.25 | 92 | 1004.6 |
| 20260506194604 | 16 | 0 | 0.0 | 1.6 | 0.03 | 0.23 | 0.23 | 92 | 1005.1 |
| 20260506193053 | 16 | 0 | 0.0 | 1.6 | 0.05 | 0.23 | 0.23 | 92 | 1005.0 |
| 20260506191553 | 16 | 0 | 0.0 | 0.0 | 0.08 | 0.20 | 0.20 | 91 | 1004.7 |